Location: Bennemühlen
(52.5740°N, 9.7135°E)
Time: 13:11:31
(UTC+00:00)

Tiangong - Visible Passes

Search period start: 21 January 2026 00:00
Search period end: 31 January 2026 00:00
Orbit: 378 x 393 km, 41.5° (Epoch: 20 January)

Date Brightness Start Highest point End Pass type
(mag) Time Alt. Az. Time Alt. Az. Time Alt. Az.
21 Jan 0.8 05:29:16 10° S 05:29:56 10° S 05:30:35 10° SSE visible
22 Jan 0.7 06:05:27 10° SSW 06:06:41 12° S 06:07:55 10° SSE visible
23 Jan 0.6 05:06:41 11° S 05:07:23 11° S 05:08:33 10° SSE visible
24 Jan 0.6 05:43:07 10° SSW 05:44:01 11° S 05:44:54 10° S visible
25 Jan 0.7 04:45:13 11° S 04:45:13 11° S 04:45:46 10° SSE visible
